Overview Statistics Trail Chart Weather Telemetry Raw packets
 

This is the latest recevied weather packets stored in our database for station/object VE8SKI. If no packets are shown the sender has not sent any weather packets the latest 10 day(s).

<< 84 85 86 87 88 89 90 >>
Time Temp. Humidity Pressure Rain* Wind** Luminosity Snow
1777486855 7.22° C 56% 1015.7 hPa 0 mm 2.68 m/s, 186° - -
1777486555 7.22° C 56% 1015.7 hPa 0 mm 2.24 m/s, 184° - -
1777486256 6.67° C 56% 1015.7 hPa 0 mm 3.13 m/s, 139° - -
1777485956 6.67° C 57% 1015.8 hPa 0 mm 2.24 m/s, 194° - -
1777485657 6.67° C 57% 1015.8 hPa 0 mm 2.24 m/s, 145° - -
1777485357 6.11° C 58% 1015.6 hPa 0 mm 2.68 m/s, 149° - -
1777485055 6.67° C 57% 1015.7 hPa 0 mm 2.68 m/s, 193° - -
1777484755 6.67° C 56% 1015.7 hPa 0 mm 2.24 m/s, 203° - -
1777484456 7.22° C 56% 1015.7 hPa 0 mm 1.79 m/s, 316° - -
1777484156 6.67° C 55% 1015.8 hPa 0 mm 2.68 m/s, 163° - -
1777483857 7.22° C 54% 1015.9 hPa 0 mm 2.68 m/s, 118° - -
1777483557 7.22° C 55% 1016 hPa 0 mm 1.34 m/s, 186° - -
1777483255 7.22° C 56% 1016.1 hPa 0 mm 0.45 m/s, 115° - -
1777482955 6.67° C 55% 1016.2 hPa 0 mm 2.68 m/s, 158° - -
1777482656 7.22° C 56% 1016.3 hPa 0 mm 2.24 m/s, 190° - -
1777482356 6.67° C 56% 1016.5 hPa 0 mm 1.79 m/s, 115° - -
1777482057 6.67° C 56% 1016.6 hPa 0 mm 1.79 m/s, 84° - -
1777481757 6.67° C 56% 1016.7 hPa 0 mm 1.34 m/s, 221° - -
1777481455 6.67° C 57% 1016.8 hPa 0 mm 1.79 m/s, 136° - -
1777481155 6.11° C 58% 1016.9 hPa 0 mm 2.24 m/s, 132° - -
1777480856 6.11° C 59% 1017.1 hPa 0 mm 2.24 m/s, 201° - -
1777480556 5.56° C 59% 1017.2 hPa 0 mm 2.24 m/s, 215° - -
1777480256 5.56° C 59% 1017.3 hPa 0 mm 2.24 m/s, 219° - -
1777479957 5.56° C 59% 1017.4 hPa 0 mm 2.24 m/s, 207° - -
1777479654 5° C 59% 1017.5 hPa 0 mm 2.24 m/s, 203° - -

* Rain latest hour (hover to see other rain measurements)
** Current wind speed in m/s (hover to see current wind gust speed)